Location: Haieshausen
(51.8387°N, 9.9720°E)
Time: 04:38:00
(UTC+00:00)

SeaSat 1 - Pass Details

Date: 14 July 2020
Orbit: 744 x 748 km, 108.0° (Epoch: 10 August)

Event Time Altitude Azimuth Distance (km) Brightness Sun altitude
Rises 02:12:23 0° 29° (NNE) 3,203 7.9 -8.0°
Reaches altitude 10° 02:14:40 10° 26° (NNE) 2,276 6.5 -7.8°
Maximum altitude 02:19:33 61° 307° (NW) 850 2.8 -7.3°
Drops below altitude 10° 02:24:24 10° 228° (SW) 2,264 4.3 -6.9°
Enters shadow 02:24:46 - 227° (SW) 2,413 4.4 -6.8°
